Simultaneous Nadir Overpasses (SNOs) Predictions

Prediction of SNOs between METOP-B and TERRA Satellite Orbit:

Table of predicted SNOs for the next 14.0 days since TLE Epoch: 5/23/2015
Index Date (METOP-B) Time (METOP-B) Lat,Lon (METOP-B) SZA (METOP-B ) Date (TERRA) Time (TERRA) Lat,Lon (TERRA) SZA (TERRA ) Distance(km) Time Diff (sec)
1 05/23/2015 18:56:13 81.30, -56.75 63.70 05/23/2015 18:56:57 81.31, -56.68 63.73 1.51 44
2 05/23/2015 19:46:53 -81.31, 110.88 116.28 05/23/2015 19:46:24 -81.30, 110.82 116.30 1.17 29
3 05/26/2015 14:30:32 81.30, 9.68 63.18 05/26/2015 14:31:12 81.30, 9.58 63.19 1.82 40
4 05/26/2015 15:21:12 -81.31, 177.32 116.79 05/26/2015 15:20:38 -81.32, 177.48 116.78 2.79 34
5 05/29/2015 10:04:52 81.30, 76.07 62.71 05/29/2015 10:05:27 81.30, 76.06 62.73 0.17 35
6 05/
